This is the latest recevied weather packets stored in our database for station/object EA7AIS-10. If no packets are shown the sender has not sent any weather packets the latest 1 day(s).
| Time | Temp. | Humidity | Pressure | Rain* | Wind** | Luminosity | Snow |
|---|---|---|---|---|---|---|---|
| 1778082408 | 23.33° C | 36% | 1006.4 hPa | - | - | - | - |
| 1778080608 | 23.33° C | 39% | 1006.7 hPa | - | - | - | - |
| 1778078808 | 23.89° C | 36% | 1006.9 hPa | - | - | - | - |
| 1778077908 | 23.89° C | 37% | 1007 hPa | - | - | - | - |
| 1778068007 | 23.89° C | 37% | 1008.2 hPa | - | - | - | - |
| 1778067107 | 23.89° C | 37% | 1008.3 hPa | - | - | - | - |
| 1778066207 | 23.33° C | 38% | 1008.2 hPa | - | - | - | - |
| 1778065307 | 23.33° C | 39% | 1008.3 hPa | - | - | - | - |
| 1778062606 | 22.22° C | 44% | 1008.5 hPa | - | - | - | - |
| 1778061707 | 22.78° C | 44% | 1008.5 hPa | - | - | - | - |
| 1778059906 | 24.44° C | 46% | 1008.6 hPa | - | - | - | - |
| 1778059006 | 25° C | 43% | 1008.5 hPa | - | - | - | - |
| 1778057206 | 27.22° C | 38% | 1008.5 hPa | - | - | - | - |
| 1778056306 | 27.78° C | 40% | 1008.6 hPa | - | - | - | - |
| 1778055406 | 25° C | 44% | 1008.7 hPa | - | - | - | - |
| 1778053606 | 25.56° C | 45% | 1008.8 hPa | - | - | - | - |
| 1778052706 | 26.11° C | 42% | 1008.8 hPa | - | - | - | - |
| 1778051806 | 25° C | 47% | 1008.6 hPa | - | - | - | - |
| 1778050906 | 22.22° C | 54% | 1008.6 hPa | - | - | - | - |
| 1778047306 | 15° C | 81% | 1008.5 hPa | - | - | - | - |
| 1778046405 | 13.89° C | 83% | 1008.4 hPa | - | - | - | - |
| 1778044605 | 13.33° C | 83% | 1008.4 hPa | - | - | - | - |
| 1778043705 | 13.89° C | 82% | 1008.4 hPa | - | - | - | - |
| 1778042805 | 13.89° C | 82% | 1008.4 hPa | - | - | - | - |
| 1778041905 | 13.89° C | 81% | 1008.3 hPa | - | - | - | - |
* Rain since midnight (hover to see other rain measurements)
** Current wind speed in m/s (hover to see current wind gust speed)